Notices

What's New in latest Release from April 7th, 2021:

- Updated Glossary, including Speed of Maximum Gust, and Total Hourly Precipitation

- Updated national and regional climate services offices contacts and prices information

- Addition of station inventory lists for 1981-2010, 1971-2000, and 1961-1990 Normals.

If you haven't already, please take our survey and provide feedback about our website: https://eccc.sondage-survey.ca/f/LanguageSelection.aspx?s=442ca660-fcf1-47c0-95a9-59707d6fd709

Hourly Data Report for October 24, 2019

CARBERRY CS
MANITOBA
Current Station Operator: ECCC - MSC

49°54'20.900" N
99°21'26.800" W
383.50 m
5010547
71170
WZE

Download Data

Hourly Data (October 2019)
Hourly Data Report for October 24, 2019
TIME
LST
Temp Definition
°C
Dew Point Definition
°C
Rel Hum Definition
%
Precip. Amount Definition
mm

Wind Dir Definition
10's deg

Wind Spd Definition
km/h
Visibility Definition
km
Stn Press Definition
kPa
Hmdx Definition


Wind Chill Definition


Weather Definition


00:00 -5.9 -7.2 90 0.0 27 7   97.76   -9 LegendNANA
01:00 -6.0 -7.8 87 0.0 27 12   97.81   -11 LegendNANA
02:00 -5.8 -7.7 86 0.0 26 8   97.81   -10 LegendNANA
03:00 -6.3 -8.6 84 0.0 26 9   97.77   -11 LegendNANA
04:00 -7.0 -8.7 88 0.0 27 9   97.82   -11 LegendNANA
05:00 -6.7 -8.6 86 0.0 26 8   97.88   -11 LegendNANA
06:00 -6.2 -8.6 83 0.0 24 7   97.88   -10 LegendNANA
07:00 -7.5 -9.0 89 0.0 27 4   97.87   -10 LegendNANA
08:00 -6.4 -8.3 87 0.0 26 9   97.88   -11 LegendNANA
09:00 -3.4 -6.6 79 0.0 25 6   97.92   -6 LegendNANA
10:00 0.0 -4.2 73 0.0 28 6   97.89   -2 LegendNANA
11:00 2.5 -5.4 56 0.0 26 10   97.84     LegendNANA
12:00 4.0 -5.9 48 0.0 25 10   97.76     LegendNANA
13:00 4.5 -7.3 42 0.0 24 9   97.71     LegendNANA
14:00 5.4 -7.0 40 0.0 20 9   97.61     LegendNANA
15:00 5.7 -6.8 40 0.0 19 13   97.53     LegendNANA
16:00 5.0 -6.6 43 0.0 20 16   97.51     LegendNANA
17:00 3.9 -5.1 52 0.0 20 11   97.48     LegendNANA
18:00 3.1 -4.7 56 0.0 20 11   97.42     LegendNANA
19:00 2.7 -4.2 60 0.0 18 12   97.35     LegendNANA
20:00 2.5 -3.4 65 0.0 19 11   97.32     LegendNANA
21:00 2.4 -1.9 73 0.0 19 12   97.27     LegendNANA
22:00 2.1 -1.1 79 0.0 20 14   97.17     LegendNANA
23:00 0.9 -1.5 84 0.0 19 10   97.09     LegendNANA

Notes on Data Quality.

Legend

  • E = Estimated
  • M = Missing
  • NA = Not Available*
  • [empty] = Indicates an unobserved value
Date modified: